Lid_Strength_Index
3 3 3 3 3 3 3 3 3 3 3 2 2 2 2 2 3 6 11 7 5 -2 -1 5 2 4 3 5 4 5 10 12 11 11 10 7 8 6 5 6 5 5 5 4 2
3 3 3 3 3 3 3 3 3 3 3 3 3 2 2 1 5 8 4 -2 -2 -3 6 7 7 6 7 8 7 8 11 10 7 8 9 7 7 7 7 7 7 7 4 3 3
3 3 3 3 3 3 3 3 3 3 3 3 3 2 2 2 9 11 -2 -2 -1 -1 5 6 6 6 8 8 8 7 10 7 6 7 7 8 8 6 8 9 7 8 6 4 4
3 3 3 3 3 3 3 3 3 3 3 3 3 2 2 6 13 7 -1 -1 -1 4 6 7 6 7 8 9 8 8 6 6 7 6 7 8 6 8 7 7 5 5 4 4 4
3 3 3 3 3 3 3 3 3 3 3 3 3 2 5 12 10 6 -0 -1 2 6 7 7 7 8 9 9 8 8 7 6 6 6 7 6 8 8 7 5 4 4 4 5 4
3 3 3 3 3 3 3 3 3 3 3 3 2 2 7 14 9 7 7 8 5 7 7 6 6 6 8 9 9 6 6 7 6 7 7 8 8 7 7 5 5 5 5 5 4
3 3 3 3 3 3 3 3 4 3 3 2 2 3 9 12 7 7 7 9 6 6 7 5 5 6 7 9 7 6 8 7 7 7 8 7 10 10 6 5 6 6 5 5 4
3 3 3 3 3 3 3 4 4 3 2 2 2 6 12 9 7 5 7 9 8 8 7 5 5 6 8 7 7 8 8 12 8 7 7 7 13 8 6 6 7 6 6 5 4
3 3 3 3 3 4 4 4 3 2 2 2 7 8 11 5 8 7 8 9 9 9 7 4 6 9 8 10 11 11 13 11 10 7 8 9 12 8 6 7 7 7 6 5 5
3 4 4 4 4 4 5 5 4 4 2 2 4 13 9 9 8 6 7 8 10 9 7 7 9 10 11 11 14 12 12 11 11 9 8 10 10 8 7 7 7 7 6 6 5
3 4 4 4 5 5 7 11 10 10 9 10 12 12 10 8 7 7 7 9 10 10 11 10 10 11 11 10 10 11 11 11 10 7 9 10 10 9 8 7 8 7 6 6 5
4 4 4 4 5 5 8 10 10 9 10 9 9 9 9 9 9 8 8 9 12 13 11 11 12 10 9 9 10 11 11 11 10 7 9 10 11 9 8 8 7 7 6 6 5
3 4 4 5 5 7 9 9 7 8 12 10 10 10 9 8 9 9 9 10 10 13 12 12 10 9 9 11 11 12 13 12 11 9 8 10 12 11 8 7 7 6 5 5 5
3 4 4 5 8 9 8 7 7 8 15 13 12 9 9 8 10 7 9 9 10 10 9 11 8 9 11 11 11 14 10 10 9 12 15 10 15 12 11 9 8 7 6 6 5
3 3 4 5 9 9 8 8 7 11 19 12 11 8 10 11 12 10 9 9 11 9 9 10 10 11 11 10 10 12 10 10 10 12 12 12 14 13 11 11 10 8 7 6 5
3 3 4 7 9 8 7 8 9 15 18 12 11 12 11 12 11 11 10 9 9 9 11 10 9 10 10 10 10 10 11 12 13 14 16 15 13 13 13 11 9 8 7 6 5
4 4 5 5 8 7 7 9 14 17 12 12 12 12 14 13 12 12 12 13 12 14 14 11 11 10 10 13 12 12 14 16 16 16 16 15 14 13 10 9 8 8 7 6 5
5 5 6 6 7 6 9 11 17 13 13 10 11 12 14 13 13 14 14 14 13 12 14 14 14 10 10 12 13 14 14 16 18 17 16 13 16 13 9 8 8 7 6 6 6
6 8 8 7 5 7 10 15 15 14 10 11 12 13 13 13 13 15 15 15 13 12 13 15 14 9 10 11 11 14 14 13 16 16 16 15 13 10 9 9 8 8 7 7 6
9 9 8 6 6 9 11 14 13 10 9 11 14 12 14 13 13 16 15 13 13 11 12 13 15 12 11 12 11 13 12 14 15 17 19 17 16 15 12 11 9 9 8 7 5
9 10 7 6 7 9 13 13 11 8 9 11 12 13 14 13 13 15 14 13 12 12 11 13 13 12 11 13 13 14 15 14 14 15 17 19 16 10 11 10 10 8 7 7 6
10 11 6 7 10 13 12 10 8 9 9 9 11 12 12 12 13 14 14 12 10 10 12 11 14 15 12 11 12 14 14 14 16 16 16 15 14 9 9 9 8 8 7 6 6
11 11 6 7 13 13 11 10 9 10 9 10 11 11 12 13 14 12 12 9 10 10 11 11 14 16 14 13 13 14 13 14 14 13 16 16 14 9 9 9 8 8 7 7 6
10 10 8 8 11 12 12 11 10 7 9 9 9 11 13 13 13 12 11 8 8 10 4 7 15 14 13 13 12 12 11 12 13 14 14 14 13 12 10 10 8 8 7 6 6
10 11 10 11 10 10 10 10 10 11 8 8 10 12 13 14 13 12 11 10 9 6 10 11 13 14 13 12 11 12 11 12 13 13 13 12 13 11 10 9 8 7 7 7 6
10 10 10 11 10 11 11 12 11 10 10 10 10 10 9 13 12 12 12 12 10 11 13 13 13 13 13 10 10 12 11 11 11 11 12 12 12 9 8 7 8 8 7 7 6
10 10 10 10 10 11 11 10 10 9 8 7 8 9 10 9 9 9 10 10 9 9 12 13 12 12 14 12 11 14 11 10 10 10 10 13 10 9 9 8 8 8 7 7 6